Flag for Canada Weather past 2 weeks in Paradise, Newfoundland and Labrador, Canada

Now
39 °F

Overcast.


Feels Like: 33 °F
Forecast: 31 / 36 °F
Wind: 9 mph from West

Location: St. John's

Current Time: Mar 27, 2015 at 3:14:05 PM

Latest Report: Mar 27, 2015 at 2:30 PM


Visibility: 15 mi

Pressure: 29.63 "Hg

Humidity: 87%

Dew point: 36 °F

Location of ParadiseLocation

Historic Weather in Paradise — Graph

°F

Paradise temperature yesterday

Maximum temperature yesterday: 37 °F (at 11:30 PM)
Minimum temperature yesterday: 19 °F (at 4:30 AM)
Average temperature yesterday: 28 °F

Past Weeks' High & Low Weather Summary

 TemperatureHumidityPressure
High43 °F (Mar 22, 3:30 PM)100% (Mar 16, 4:30 AM)30.34 "Hg (Mar 16, 4:30 AM)
Low5 °F (Mar 14, 12:30 AM)51% (Mar 26, 1:30 PM)28.71 "Hg (Mar 19, 9:30 AM)
Average25 °F82%29.69 "Hg
* Reported Mar 12 1:30 PM — Mar 27 1:30 PM, Paradise, Weather by CustomWeather, © 2015

Note: Actual official high and low records may vary slightly from our data, if they occured in-between our weather recording intervals... More about our weather records

Advertising

Paradise weather history for previous 24 hours

 ConditionsComfort  
Time TempWeatherWind HumidityBarometerVisibility
1:30 PM
Fri, Mar 27
41 °FMore clouds than sun.13 mph81%29.61 "Hg15 mi
12:30 PM39 °FOvercast.14 mph87%29.65 "Hg15 mi
11:30 AM37 °FLight rain. More clouds than sun.13 mph93%29.63 "Hg15 mi
10:30 AM36 °FLight rain. Overcast.12 mph100%29.64 "Hg15 mi
9:30 AM36 °FLight rain. More clouds than sun.10 mph100%29.63 "Hg15 mi
8:30 AM36 °FLight rain. Low clouds.13 mph93%29.60 "Hg10 mi
7:30 AM36 °FLight rain. Fog.12 mph93%29.61 "Hg1 mi
6:30 AM36 °FLight rain. Fog.13 mph100%29.60 "Hg3 mi
6:17 AM36 °FLight rain. Mostly cloudy.12 mph100%29.60 "Hg10 mi
5:30 AM36 °FLight rain. Mostly cloudy.13 mph100%29.58 "Hg15 mi
4:30 AM36 °FLight rain. Mostly cloudy.14 mph100%29.60 "Hg15 mi
3:30 AM37 °FDrizzle. Low clouds.16 mph93%29.63 "Hg15 mi
2:30 AM37 °FDrizzle. Low clouds.17 mph100%29.64 "Hg15 mi
1:30 AM39 °FDrizzle. Low clouds.23 mph93%29.69 "Hg15 mi
11:30 PM
Thu, Mar 26
37 °FLight rain. Low clouds.16 mph93%29.78 "Hg12 mi
10:30 PM36 °FLight rain. Overcast.21 mph93%29.81 "Hg15 mi
9:30 PM34 °FSnow flurries. Overcast.15 mph93%29.85 "Hg15 mi
8:30 PM32 °FSnow flurries. Overcast.15 mph93%29.89 "Hg4 mi
7:30 PM32 °FOvercast.13 mph69%29.93 "Hg15 mi
6:30 PM32 °FOvercast.13 mph64%29.94 "Hg15 mi
5:30 PM32 °FOvercast.18 mph55%29.94 "Hg15 mi
4:30 PM32 °FOvercast.14 mph64%29.98 "Hg15 mi
3:30 PM34 °FOvercast.20 mph56%30.00 "Hg15 mi
Weather by CustomWeather, © 2015

See weather overviewHow to use our weather pages